Weather History for KRHI - December, 2012

Change the Weather History Date:

Friday, December 28, 2012

  Actual Average Record
Temperature  
Mean Temperature 17 °F 14 °F  
Max Temperature 21 °F 23 °F 45 °F (1984)
Min Temperature 13 °F 5 °F -28 °F (1924)
Degree Days  
Heating Degree Days 48 51  
Month to date heating degree days 1157 1337  
Since 1 July heating degree days 3277 3471  
Cooling Degree Days 0 0  
Month to date cooling degree days 0 0  
Year to date cooling degree days 373 261  
Moisture  
Dew Point 15 °F    
Average Humidity 84    
Maximum Humidity 91    
Minimum Humidity 77    
Precipitation  
Precipitation 0.08 in 0.04 in 0.87 in (1959)
Month to date precipitation 0.81 1.32  
Year to date precipitation 30.05 31.28  
Snow  
Snow 1.50 in - 6.00 in (1966)
Month to date snowfall 10.8  
Since 1 July snowfall 16.3  
Snow Depth 4.00 in    
Sea Level Pressure  
Sea Level Pressure 30.03 in    
Wind  
Wind Speed 3 mph (NE)    
Max Wind Speed 13 mph    
Max Gust Speed 15 mph    
Visibility 5 miles    
Events Snow    
T = Trace of Precipitation, MM = Missing Value Source: NWS Daily Summary

Daily Weather History Graph

Daily Weather History Graph

Search for Another Location

Airport or City:

Trip Planner

Search our weather history database for the weather conditions in past years. The results will help you decide how hot, cold, wet, or windy it might be!

Date:

Astronomy

Dec. 28, 2012 Rise Set
Actual Time 7:38 AM CST 4:21 PM CST
Civil Twilight 7:03 AM CST 4:55 PM CST
Nautical Twilight 6:26 AM CST 5:33 PM CST
Astronomical Twilight 5:50 AM CST 6:09 PM CST
Moon 5:01 PM CST (12/28) 7:29 AM CST (12/28)
Length of Visible Light 9h 51m
Length of Day
8h 43m
Full, 100% of the Moon is Illuminated
Dec 28
Full
Jan 4
Last Quarter
Jan 11
New
Jan 18
First Quarter
Jan 26
Full

Hourly Weather History & Observations

Time (CST) Temp. Windchill Dew Point Humidity Pressure Visibility Wind Dir Wind Speed Gust Speed Precip Events Conditions
12:23 AM 12.2 °F - 8.6 °F 85% 30.10 in 10.0 mi Calm Calm - N/A   Overcast
12:53 AM 14.0 °F - 10.0 °F 84% 30.19 in 10.0 mi Calm Calm - N/A   Overcast
1:53 AM 14.0 °F - 9.0 °F 80% 30.19 in 10.0 mi Calm Calm - N/A   Overcast
2:53 AM 15.1 °F - 10.9 °F 84% 30.19 in 10.0 mi Calm Calm - N/A   Overcast
3:53 AM 15.1 °F - 10.9 °F 84% 30.18 in 10.0 mi Calm Calm - N/A   Overcast
4:53 AM 15.1 °F - 10.9 °F 84% 30.17 in 10.0 mi Calm Calm - N/A   Overcast
5:53 AM 16.0 °F - 10.9 °F 81% 30.17 in 10.0 mi Calm Calm - N/A   Overcast
6:53 AM 16.0 °F 10.4 °F 12.0 °F 84% 30.15 in 10.0 mi NNE 3.5 mph - N/A   Overcast
7:53 AM 17.1 °F - 12.9 °F 84% 30.15 in 10.0 mi Calm Calm - N/A   Overcast
8:53 AM 18.0 °F 12.7 °F 14.0 °F 84% 30.15 in 10.0 mi ENE 3.5 mph - N/A   Overcast
9:53 AM 19.0 °F 9.0 °F 14.0 °F 81% 30.15 in 10.0 mi East 8.1 mph - N/A   Overcast
10:53 AM 19.9 °F 11.1 °F 14.0 °F 78% 30.14 in 10.0 mi ENE 6.9 mph - N/A   Overcast
11:53 AM 21.0 °F 12.4 °F 14.0 °F 74% 30.11 in 4.0 mi ENE 6.9 mph - 0.00 in Snow Light Snow
12:40 PM 21.2 °F 12.6 °F 14.0 °F 74% 29.99 in 2.5 mi ENE 6.9 mph - 0.00 in Snow Light Snow
12:53 PM 21.0 °F 13.4 °F 15.1 °F 78% 30.08 in 2.5 mi East 5.8 mph - 0.00 in Snow Light Snow
1:29 PM 21.2 °F 12.6 °F 15.8 °F 80% 29.97 in 1.8 mi East 6.9 mph - 0.00 in Snow Light Snow
1:45 PM 21.2 °F 13.6 °F 15.8 °F 80% 29.97 in 2.0 mi ENE 5.8 mph - 0.00 in Snow Light Snow
1:53 PM 21.0 °F 14.6 °F 16.0 °F 81% 30.06 in 2.0 mi ENE 4.6 mph - 0.00 in Snow Light Snow
2:26 PM 21.2 °F 13.6 °F 15.8 °F 80% 29.96 in 4.0 mi ENE 5.8 mph - 0.00 in Snow Light Snow
2:41 PM 21.2 °F 13.6 °F 15.8 °F 80% 29.95 in 2.5 mi ENE 5.8 mph - 0.00 in Snow Light Snow
2:53 PM 21.0 °F 13.4 °F 16.0 °F 81% 30.05 in 2.5 mi ENE 5.8 mph - 0.00 in Snow Light Snow
3:36 PM 21.2 °F 14.9 °F 15.8 °F 80% 29.96 in 1.8 mi NE 4.6 mph - 0.00 in Snow Light Snow
3:53 PM 21.0 °F 14.6 °F 17.1 °F 85% 30.04 in 1.8 mi NE 4.6 mph - 0.00 in Snow Light Snow
4:07 PM 21.2 °F 14.9 °F 17.6 °F 86% 29.95 in 2.0 mi ENE 4.6 mph - 0.00 in Snow Light Snow
4:24 PM 21.2 °F 14.9 °F 17.6 °F 86% 29.95 in 1.5 mi NE 4.6 mph - 0.00 in Snow Light Snow
4:48 PM 21.2 °F - 17.6 °F 86% 29.95 in 2.5 mi Calm Calm - 0.00 in Snow Light Snow
4:53 PM 21.0 °F - 18.0 °F 88% 30.05 in 3.0 mi Calm Calm - 0.00 in Snow Light Snow
4:56 PM 21.2 °F - 17.6 °F 86% 29.96 in 2.5 mi Calm Calm - 0.00 in Snow Light Snow
5:09 PM 19.4 °F - 17.6 °F 93% 29.95 in 2.0 mi Calm Calm - 0.00 in Snow Light Snow
5:19 PM 19.4 °F 14.3 °F 17.6 °F 93% 29.95 in 5.0 mi NE 3.5 mph - 0.00 in Snow Light Snow
5:53 PM 19.9 °F 14.9 °F 18.0 °F 92% 30.04 in 4.0 mi NE 3.5 mph - 0.00 in Snow Light Snow
6:53 PM 19.9 °F 14.9 °F 18.0 °F 92% 30.04 in 1.8 mi NE 3.5 mph - 0.00 in Snow Light Snow
7:16 PM 19.4 °F 12.8 °F 17.6 °F 93% 29.95 in 2.0 mi ENE 4.6 mph - 0.00 in Snow Light Snow
7:31 PM 19.4 °F 14.3 °F 17.6 °F 93% 29.95 in 3.0 mi ENE 3.5 mph - 0.00 in Snow Light Snow
7:53 PM 19.9 °F 14.9 °F 17.1 °F 89% 30.04 in 3.0 mi NE 3.5 mph - 0.00 in Snow Light Snow
8:03 PM 19.4 °F 12.8 °F 17.6 °F 93% 29.94 in 2.0 mi ENE 4.6 mph - 0.01 in Snow Light Snow
8:30 PM 19.4 °F 14.3 °F 17.6 °F 93% 29.94 in 4.0 mi NE 3.5 mph - 0.01 in Snow Light Snow
8:53 PM 19.9 °F 14.9 °F 17.1 °F 89% 30.03 in 3.0 mi NE 3.5 mph - 0.01 in Snow Light Snow
9:53 PM 19.9 °F 13.4 °F 17.1 °F 89% 30.01 in 4.0 mi NNE 4.6 mph - 0.00 in Snow Light Snow
10:23 PM 19.4 °F 14.3 °F 17.6 °F 93% 29.92 in 2.5 mi NE 3.5 mph - 0.00 in Snow Light Snow
10:34 PM 19.4 °F 12.8 °F 17.6 °F 93% 29.92 in 1.5 mi ENE 4.6 mph - 0.00 in Snow Light Snow
10:53 PM 19.9 °F 13.4 °F 17.1 °F 89% 30.00 in 1.5 mi NE 4.6 mph - 0.00 in Snow Light Snow
11:05 PM 19.4 °F 14.3 °F 17.6 °F 93% 29.91 in 2.0 mi NE 3.5 mph - 0.00 in Snow Light Snow
11:44 PM 19.4 °F 14.3 °F 17.6 °F 93% 29.90 in 2.5 mi NNE 3.5 mph - 0.00 in Snow Light Snow
11:53 PM 19.9 °F 14.9 °F 17.1 °F 89% 29.98 in 2.5 mi NNE 3.5 mph - 0.01 in Snow Light Snow